www.pogodaiklimat.ru

Погода и климат >> Архив погоды >> Россия >> Якутия >> Ярольин


ПОГОДА в Ярольине

  • Прогноз погоды в Ярольине
  • Монитор погоды в Ярольине

АРХИВ ПОГОДЫ в Ярольине

Время (UTC), дата Ветер
(напр.,м/с)
 
Видим.   Явления Облачность Т
(С)
Тd
(С)
f
(%)
Тe
(С)
Тes
(С)
Комфортность P
(гПа)
Po
(гПа)
Тmin
(С)
Tmax
(С)
R
(мм)
R24
(мм)
S
(см)
06 9.01 штиль 0 50 км {снег} 3/0
[Ac lent Cs]
-36.8 -39.1 79 -37 -37 опасность
обморожения
1005.2 971.6
09 9.01 штиль 0 20 км слаб. снег 10/0
[Ac lent Cs]
-39.3 -41.7 78 -39 -39 опасность
обморожения
1007.3 973.3
12 9.01 штиль 0 50 км {снег} 10/0
[Ac lent Cs]
-40.4 -42.7 78 -40 -40 опасность
обморожения
1008.8 974.6 -32.2 0.0
15 9.01 штиль 0 50 км 10/0
[Ac lent Cs]
-41.9 -43.8 82 -42 -42 опасность
обморожения
1010.4 975.8
18 9.01 штиль 0 50 км 4/0
[Ac lent Cs]
-43.5 -45.7 79 -44 -44 опасность
обморожения
1011.5 976.6
21 9.01 штиль 0 50 км 3/0
[Cs]
-44.3 -46.4 79 -44 -44 опасность
обморожения
1012.1 977.2
00 10.01 штиль 0 50 км 3/0
[Cs]
-45.3 -47.2 81 -45 -45 опасность
обморожения
1012.7 977.7 -45.4 8
03 10.01 штиль 0 50 км ясно -45.5 -47.2 83 -46 -46 опасность
обморожения
1012.4 977.2 -45.8
06 10.01 штиль 0 50 км 3/0
[Cs]
-44.7 -46.4 83 -45 -45 опасность
обморожения
1012.2 977.2
09 10.01 штиль 0 50 км 4/0
[Ac lent Cs]
-44.6 -46.4 82 -45 -45 опасность
обморожения
1011.9 976.9
12 10.01 штиль 0 50 км 4/0
[Ac lent Cs]
-44.6 -46.4 82 -45 -45 опасность
обморожения
1011.8 976.8 -44.6
15 10.01 штиль 0 50 км 3/0
[Ac lent Cs]
-43.0 -45.0 80 -43 -43 опасность
обморожения
1010.4 965.7
18 10.01 штиль 0 50 км 3/0
[Ac lent Cs]
-41.2 -43.2 81 -41 -41 опасность
обморожения
1009.1 974.8
21 10.01 штиль 0 20 км слаб. снег 10/0
[Ac lent Cs]
-38.8 -41.2 78 -39 -39 опасность
обморожения
1007.8 973.8
00 11.01 штиль 0 20 км слаб. снег 10/0
[Ac As Cs]
-36.6 -38.8 80 -37 -37 опасность
обморожения
1006.8 973.1 -44.8 0.4 8
03 11.01 штиль 0 10 км слаб. снег 10/0
[Ac As Cs]
-35.6 -37.7 81 -36 -36 опасность
обморожения
1007.0 973.4
06 11.01 штиль 0 20 км слаб. снег 10/0
[Ac As Cs]
-34.7 -37.1 79 -35 -35 опасность
обморожения
1007.4 973.9
09 11.01 штиль 0 50 км {снег} 6/0
[Ac As Cs]
-36.9 -39.1 80 -37 -37 опасность
обморожения
1009.0 975.3
12 11.01 штиль 0 50 км {снег} 3/0
[Cs]
-42.9 -45.0 80 -43 -43 опасность
обморожения
1011.3 976.6 -34.5 0.5
15 11.01 штиль 0 50 км 3/0
[Cs]
-46.6 -49.0 76 -47 -47 опасность
обморожения
1012.9 977.5
18 11.01 штиль 0 50 км ясно -47.6 -50.0 76 -48 -48 опасность
обморожения
1014.2 1078.9
21 11.01 штиль 0 50 км ясно -47.9 -50.0 79 -48 -48 опасность
обморожения
1016.0 980.4
00 12.01 штиль 0 50 км ясно -48.7 -51.2 75 -49 -49 опасность
обморожения
1017.8 981.9 -50.0 8
03 12.01 штиль 0 50 км 3/0
[Cs]
-50.4 -52.5 78 -50 -50 опасность
обморожения
1019.0 982.9 -50.6
06 12.01 штиль 0 20 км слаб. снег 10/0
[Ac As Cs]
-49.4 -51.2 81 -49 -49 опасность
обморожения
1020.5 984.5
09 12.01 штиль 0 20 км слаб. снег 10/0
[Ac As Cs]
-49.8 -51.2 85 -50 -50 опасность
обморожения
1022.3 986.1
12 12.01 штиль 0 20 км слаб. снег 10/0
[Ac As Cs]
-48.0 -50.0 80 -48 -48 опасность
обморожения
1022.9 987.1 -48.0 0.2
15 12.01 штиль 0 20 км слаб. снег 10/0
[Ac As Cs]
-48.2 -50.0 81 -48 -48 опасность
обморожения
1024.2 988.2
18 12.01 штиль 0 10 км слаб. снег 10/0
[Ac As Cs]
-46.8 -49.0 78 -47 -47 опасность
обморожения
1025.0 989.2
21 12.01 штиль 0 20 км слаб. снег 10/0
[Ac As Cs]
-46.6 -49.0 76 -47 -47 опасность
обморожения
1026.4 990.5
00 13.01 штиль 0 50 км {снег} 3/0
[Ac As]
-48.0 -50.0 80 -48 -48 опасность
обморожения
1028.4 992.3 -48.9 0.3 9
03 13.01 штиль 0 50 км ясно -50.5 -52.5 79 -51 -51 опасность
обморожения
1030.5 993.8 -51.2
06 13.01 штиль 0 50 км ясно -51.1 -52.5 85 -51 -51 опасность
обморожения
1032.3 995.6
09 13.01 штиль 0 50 км ясно -52.1 -54.1 79 -52 -52 опасность
обморожения
1034.4 997.4
12 13.01 штиль 0 50 км ясно -53.0 -54.1 88 -53 -53 опасность
обморожения
1035.5 998.4 -48.0
15 13.01 штиль 0 50 км ясно -53.2 -55.9 72 -53 -53 опасность
обморожения
1036.5 998.4
18 13.01 штиль 0 50 км ясно -52.6 -54.1 84 -53 -53 опасность
обморожения
1034.8 997.7
21 13.01 В 1 50 км ясно -50.7 -52.5 81 -57 -57 опасность
обморожения
1034.0 997.2
00 14.01 В 1 50 км ясно -50.1 -52.5 76 -56 -56 опасность
обморожения
1032.4 996.2 -54.2 8
03 14.01 штиль 0 50 км 3/0
[Cs]
-49.9 -52.5 74 -50 -50 опасность
обморожения
1031.9 995.4
06 14.01 штиль 0 50 км 4/0
[Ac lent Cs]
-48.9 -51.2 77 -49 -49 опасность
обморожения
1031.0 994.7
09 14.01 штиль 0 50 км 4/0
[Ac lent Cs]
-48.9 -51.2 77 -49 -49 опасность
обморожения
1031.0 994.7
12 14.01 штиль 0 50 км 4/0
[Ac lent]
-50.3 -52.5 77 -50 -50 опасность
обморожения
1031.6 995.1 -48.9
15 14.01 штиль 0 50 км 4/0
[Ac lent]
-50.1 -52.5 76 -50 -50 опасность
обморожения
1030.9 994.7
18 14.01 штиль 0 50 км 10/0
[Ac lent Cs]
-46.5 -49.0 75 -47 -47 опасность
обморожения
1031.2 995.2
21 14.01 штиль 0 50 км 10/0
[Ac lent Cs]
-44.6 -46.4 82 -45 -45 опасность
обморожения
1030.5 994.8
00 15.01 штиль 0 50 км 10/0
[Ac lent Cs]
-43.1 -45.0 81 -43 -43 опасность
обморожения
1030.6 995.2 -50.4 8
06 15.01 СВ 1 20 км слаб. снег 10/0
[Ac As Cs]
-37.3 -39.5 80 -42 -42 опасность
обморожения
1027.0 992.6
09 15.01 В 2 20 км слаб. снег 10/0
[Ac As Cs]
-33.9 -36.2 80 -42 -42 опасность
обморожения
1025.6 991.7
12 15.01 В 2 20 км слаб. снег 10/0
[Ac As Cs]
-33.9 -36.2 80 -42 -42 опасность
обморожения
1025.6 991.7
15 15.01 В 2 20 км слаб. снег 10/0
[Ac As Cs]
-31.4 -33.6 81 -39 -39 опасность
обморожения
1023.0 989.6 -31.2 0.2
18 15.01 штиль 0 10 км слаб. снег 10/0
[Ac As Cs]
-32.3 -34.6 80 -32 -32 опасность
обморожения
1021.0 987.5
21 15.01 штиль 0 10 км слаб. снег 10/0
[As op]
-25.9 -27.8 84 -26 -26 1013.3 980.9
00 16.01 ЮВ 4 50 км позёмок {снег} 10/0
[Ac As Cs]
-21.9 -25.2 75 -31 -31 опасность
обморожения
1009.9 978.1 -34.0 1 10

 

Местоположение метеостанции Ярольин (Якутия, Россия): широта 67.13 долгота 108.50 высота над уровнем моря 236 м.

В архиве по умолчанию представлена погода в Ярольине за последнюю неделю. Архивные данные за месяц целиком и за предыдущие месяцы, начиная с января 2011 года, Вы можете получить, выбрав интересующий диапазон дат из раскрывающегося списка и нажав кнопку "Ввод!".


*Определитесь, кто Вы:
робот инопланетянин человек

Внимание! Время в таблицах - всемирное. Для получения местного времени необходимо прибавить поправку, которая равна 9 ч.

Смотрите также архив погоды в соседних городах и на ближайших метеорологических станциях:

Погода в Полярном (Якутия, Россия) (176 км)
Погода в Айхале (Якутия, Россия) (187 км)
Погода в Оленеке (Якутия, Россия) (224 км)
Погода в Шелагонцах (Якутия, Россия) (269 км)
Погода в Хабардино (Якутия, Россия) (335 км)
Погода в Джалинде (Якутия, Россия) (399 км)
Погода в Эйке (Якутия, Россия) (412 км)
Погода в Сухане (Якутия, Россия) (442 км)
Погода в Кислокане (Эвенкия, Россия) (449 км)
Погода в Туре (Эвенкия, Россия) (483 км)

Пояснения к столбцам:

Ветер - указаны скорость ветра в м/с - средняя за 10 мин, порывы в срок и между сроками (в фигурных скобках) и направление, откуда дует ветер: С - северный, СВ - северо-восточный, В - восточный, ЮВ - юго-восточный, Ю - южный, ЮЗ - юго-западный, З - западный, СЗ - северо-западный.
Видимость - горизонтальная дальность видимости в метрах или километрах. При видимости от 1 до 10 км при отсутствии осадков обычно наблюдается дымка, при ухудшении видимости до 1 км и менее - туман. В сухую погоду видимость может ухудшаться дымом, пылью или мглою.
Явления - указаны атмосферные явления, наблюдавшиеся в срок или в последний час перед сроком; фигурными скобками обозначены явления, наблюдавшиеся между сроками (за 1-3 часа до срока); квадратными скобками обозначены град или гололедные отложения с указанием их диаметра в мм.
Облачность - указаны через наклонную черту общая и нижняя облачность в баллах и высота нижней границы облаков в метрах; квадратными скобками обозначены формы облаков: Ci - перистые, Cs - перисто-слоистые, Cc - перисто-кучевые, Ac - высококучевые, As - высокослоистые, Sc - слоисто-кучевые, Ns - слоисто-дождевые, Cu - кучевые, Cb - кучево-дождевые. Подробнее классификацию облаков см. в Атласе облаков (PDF).
T - Температура воздуха - температура, измеренная на высоте 2 м над землей.
Td - Температура точки росы - температура, при понижении до которой содержащийся в воздухе водяной пар достигнет насыщения.
f - Относительная влажность воздуха - влажноcть воздуха, измеренная на высоте 2 м над землей.
Te - Эффективная температура - температура, которую ощущает одетый по сезону человек в тени. Характеристика душности погоды. При расчете учитывается влияние влажности воздуха и скорости ветра на теплоощущения человека.
Tes - Эффективная температура на солнце - температура, которую ощущает человек, с поправкой на солнечный нагрев. Характеристика знойности погоды. Зависит от высоты солнца над горизонтом, облачности и скорости ветра. Ночью, в пасмурную погоду, а также при ветре 12 м/с и более поправка равна нулю.
P - Атмосферное давление - приведенное к уровню моря атмосферное давление.
Po - Атмосферное давление - измеренное на уровне метеостанции атмосферное давление.
Tmin - Минимальная температура - минимум температуры воздуха на высоте 2 м над землей.
Tmax - Максимальная температура - максимум температуры воздуха на высоте 2 м над землей.
R - Количество осадков - Количество выпавших осадков за период времени, мм. При наведении курсора мыши на число - период времени, за который выпало указанное количество осадков.
R24 - Количество осадков - Количество выпавших осадков за 24 часа, мм.
S - Снежный покров - Высота снежного покрова, см. При наведении курсора мыши на число - состояние снежного покрова и степень покрытия местности в баллах.